Weather History for KLTS - March, 2014

Change the Weather History Date:

Saturday, March 29, 2014

  Actual Average Record
Temperature  
Mean Temperature 54 °F -  
Max Temperature 72 °F 67 °F 89 °F (1997)
Min Temperature 37 °F 44 °F 26 °F (2009)
Degree Days  
Heating Degree Days 10    
Growing Degree Days 4 (Base 50)    
Moisture  
Dew Point 33 °F    
Average Humidity 50    
Maximum Humidity 80    
Minimum Humidity 23    
Precipitation  
Precipitation 0.00 in - - ()
Sea Level Pressure  
Sea Level Pressure 30.23 in    
Wind  
Wind Speed 8 mph (WSW)    
Max Wind Speed 12 mph    
Max Gust Speed -    
Visibility 10 miles    
Events      
Averages and records for this station are not official NWS values.
T = Trace of Precipitation, MM = Missing Value Source: NWS Daily Summary

Daily Weather History Graph

Daily Weather History Graph

Search for Another Location

Airport or City:

Trip Planner

Search our weather history database for the weather conditions in past years. The results will help you decide how hot, cold, wet, or windy it might be!

Date:

Astronomy

Mar. 29, 2014 Rise Set
Actual Time 7:28 AM CDT 7:55 PM CDT
Civil Twilight 7:02 AM CDT 8:21 PM CDT
Nautical Twilight 6:33 AM CDT 8:50 PM CDT
Astronomical Twilight 6:03 AM CDT 9:21 PM CDT
Moon 6:35 AM CDT (3/29) 7:04 PM CDT (3/29)
Length of Visible Light 13h 18m
Length of Day
12h 27m
Waning Crescent, 2% of the Moon is Illuminated
Mar 29
Waning Crescent
Mar 30
New
Apr 7
First Quarter
Apr 15
Full
Apr 22
Last Quarter

Hourly Weather History & Observations

Time (CDT) Temp. Windchill Dew Point Humidity Pressure Visibility Wind Dir Wind Speed Gust Speed Precip Events Conditions
12:58 AM 38.5 °F 31.6 °F 32.9 °F 80% 30.16 in 10.0 mi NNE 10.4 mph - N/A   Clear
1:58 AM 39.4 °F 34.5 °F 32.5 °F 76% 30.17 in 10.0 mi NNW 6.9 mph - N/A   Clear
2:58 AM 41.5 °F 37.8 °F 32.2 °F 69% 30.20 in 10.0 mi West 5.8 mph - N/A   Clear
3:58 AM 40.5 °F 36.5 °F 31.8 °F 71% 30.22 in 10.0 mi West 5.8 mph - N/A   Partly Cloudy
4:58 AM 39.4 °F 35.2 °F 31.5 °F 73% 30.25 in 10.0 mi NW 5.8 mph - N/A   Mostly Cloudy
5:58 AM 37.6 °F 31.6 °F 31.1 °F 77% 30.25 in 10.0 mi NNW 8.1 mph - N/A   Clear
6:58 AM 38.8 °F 33.8 °F 31.5 °F 75% 30.27 in 10.0 mi NW 6.9 mph - N/A   Clear
7:58 AM 39.7 °F 34.3 °F 32.2 °F 74% 30.30 in 10.0 mi NNW 8.1 mph - N/A   Clear
8:58 AM 45.1 °F 40.3 °F 34.5 °F 66% 30.31 in 10.0 mi NNW 9.2 mph - N/A   Clear
9:58 AM 54.1 °F - 36.1 °F 51% 30.32 in 10.0 mi NNW 10.4 mph - N/A   Clear
10:58 AM 59.0 °F - 37.2 °F 44% 30.33 in 10.0 mi West 8.1 mph - N/A   Clear
11:58 AM 62.8 °F - 37.4 °F 39% 30.33 in 10.0 mi West 6.9 mph - N/A   Clear
12:58 PM 65.3 °F - 38.5 °F 37% 30.31 in 10.0 mi West 6.9 mph - N/A   Clear
1:58 PM 67.8 °F - 33.3 °F 28% 30.28 in 10.0 mi Variable 1.2 mph - N/A   Clear
2:58 PM 70.3 °F - 32.7 °F 25% 30.24 in 10.0 mi SSW 5.8 mph - N/A   Clear
3:58 PM 71.1 °F - 31.5 °F 23% 30.21 in 10.0 mi South 8.1 mph - N/A   Clear
4:58 PM 72.0 °F - 31.8 °F 23% 30.19 in 10.0 mi South 6.9 mph - N/A   Clear
5:58 PM 71.8 °F - 31.6 °F 23% 30.17 in 10.0 mi South 11.5 mph - N/A   Clear
6:58 PM 69.6 °F - 30.7 °F 24% 30.15 in 10.0 mi South 10.4 mph - N/A   Clear
7:58 PM 61.3 °F - 32.7 °F 34% 30.15 in 10.0 mi SSE 8.1 mph - N/A   Clear
8:58 PM 54.0 °F - 34.3 °F 47% 30.15 in 10.0 mi SE 6.9 mph - N/A   Clear
9:58 PM 51.3 °F - 33.8 °F 51% 30.17 in 10.0 mi SE 8.1 mph - 0.00 in   Clear
10:58 PM 53.4 °F - 34.9 °F 49% 30.16 in 10.0 mi SE 9.2 mph - N/A   Clear
11:58 PM 50.4 °F - 34.0 °F 53% 30.16 in 10.0 mi SE 5.8 mph - N/A   Clear